Location: Newark
(55.7083°N, 13.1992°E)
Time: 22:28:05
(UTC+00:00)

Transit 2A - All Passes

Search period start: 17 February 2020 00:00
Search period end: 27 February 2020 00:00
Orbit: 600 x 959 km, 66.7° (Epoch: 16 February)

Date Brightness Start Highest point End Pass type
(mag) Time Alt. Az. Time Alt. Az. Time Alt. Az.
17 Feb - 13:25:16 10° S 13:29:08 33° ESE 13:33:10 10° NE daylight
17 Feb - 15:07:50 10° WSW 15:12:07 53° NW 15:16:37 10° NE daylight
17 Feb - 16:52:35 10° WNW 16:56:13 24° NNW 17:00:03 10° NE visible
17 Feb - 18:37:02 10° NW 18:40:47 24° NNE 18:44:49 10° ENE visible
17 Feb - 20:20:18 10° NW 20:24:56 50° NE 20:30:01 10° ESE visible
17 Feb - 22:03:28 10° NW 22:08:09 45° WSW 22:13:16 10° SSE visible
18 Feb - 12:51:41 10° S 12:55:11 24° ESE 12:58:47 10° ENE daylight
18 Feb - 14:33:34 10° SW 14:37:54 69° NW 14:42:29 10° NE daylight
18 Feb - 16:18:04 10° WNW 16:21:49 26° NNW 16:25:47 10° NE daylight
18 Feb - 18:02:45 10° NW 18:06:23 22° N 18:10:16 10° ENE visible
18 Feb - 19:46:10 10° NW 19:50:40 41° NNE 19:55:35 10° ESE visible
18 Feb - 21:29:16 10° NW 21:34:04 60° SW 21:39:22 10° SSE visible
18 Feb - 23:14:01 10° W 23:16:27 14° WSW 23:18:59 10° SW night (unlit)
19 Feb - 12:18:24 10° SSE 12:21:16 17° ESE 12:24:13 10° ENE daylight
19 Feb - 13:59:24 10° SW 14:03:44 90° W 14:08:19 10° NE daylight
19 Feb - 15:43:34 10° W 15:47:27 29° NNW 15:51:35 10° NE daylight
19 Feb - 17:28:24 10° NW 17:31:58 22° N 17:35:45 10° NE visible
19 Feb - 19:12:02 10° NW 19:16:23 35° NNE 19:21:06 10° E visible
19 Feb - 20:55:06 10° NW 20:59:57 78° SW 21:05:21 10° SE visible
19 Feb - 22:39:07 10° WNW 22:42:33 19° WSW 22:46:11 10° SSW visible
20 Feb - 11:45:37 10° SE 11:47:25 12° ESE 11:49:13 10° E daylight
20 Feb - 13:25:20 10° SSW 13:29:38 68° SE 13:34:09 10° NE daylight
20 Feb - 15:09:06 10° W 15:13:08 34° NNW 15:17:24 10° NE daylight
20 Feb - 16:54:00 10° NW 16:57:33 22° N 17:01:18 10° NE visible
20 Feb - 18:37:52 10° NW 18:42:03 30° NNE 18:46:33 10° E visible
20 Feb - 20:20:57 10° NW 20:25:49 82° NE 20:31:12 10° SE visible
20 Feb - 22:04:34 10° WNW 22:08:36 25° WSW 22:12:57 10° SSW visible
21 Feb - 12:51:23 10° SSW 12:55:34 49° SE 12:59:57 10° NE daylight
21 Feb - 14:34:40 10° WSW 14:38:50 41° NNW 14:43:15 10° NE daylight
21 Feb - 16:19:33 10° WNW 16:23:07 22° N 16:26:55 10° NE daylight
21 Feb - 18:03:42 10° NW 18:07:41 27° NNE 18:11:59 10° ENE visible
21 Feb - 19:46:49 10° NW 19:51:38 65° NE 19:56:57 10° SE visible
21 Feb - 21:30:11 10° NW 21:34:37 33° WSW 21:39:26 10° S visible
22 Feb - 12:17:35 10° S 12:21:33 35° ESE 12:25:40 10° NE daylight
22 Feb - 14:00:18 10° WSW 14:04:34 51° NW 14:09:06 10° NE daylight
22 Feb - 15:45:03 10° WNW 15:48:43 24° NNW 15:52:35 10° NE daylight
22 Feb - 17:29:27 10° NW 17:33:18 24° NNE 17:37:25 10° ENE visible
22 Feb - 19:12:42 10° NW 19:17:25 52° NE 19:22:36 10° ESE visible
22 Feb - 20:55:54 10° NW 21:00:35 43° WSW 21:05:44 10° SSE visible
23 Feb - 11:43:59 10° S 11:47:35 26° ESE 11:51:18 10° ENE daylight
23 Feb - 13:26:01 10° SW 13:30:20 65° NW 13:34:58 10° NE daylight
23 Feb - 15:10:33 10° WNW 15:14:19 26° NNW 15:18:19 10° NE daylight
23 Feb - 16:55:11 10° NW 16:58:54 23° N 17:02:52 10° ENE visible
23 Feb - 18:38:35 10° NW 18:43:09 43° NNE 18:48:11 10° ESE visible
23 Feb - 20:21:41 10° NW 20:26:32 57° SW 20:31:53 10° SSE visible
23 Feb - 22:06:37 10° W 22:08:52 13° WSW 22:11:12 10° SW visible
24 Feb - 11:10:37 10° SSE 11:13:40 19° ESE 11:16:48 10° ENE daylight
24 Feb - 12:51:49 10° SW 12:56:11 85° NW 13:00:48 10° NE daylight
24 Feb - 14:36:03 10° W 14:39:57 29° NNW 14:44:05 10° NE daylight
24 Feb - 16:20:51 10° NW 16:24:29 22° N 16:28:21 10° NE daylight
24 Feb - 18:04:26 10° NW 18:08:53 36° NNE 18:13:42 10° E visible
24 Feb - 19:47:30 10° NW 19:52:25 75° SW 19:57:52 10° SSE visible
24 Feb - 21:31:38 10° WNW 21:34:58 18° WSW 21:38:31 10° SSW visible
25 Feb - 10:37:40 10° SE 10:39:48 13° ESE 10:41:57 10° ENE daylight
25 Feb - 12:17:43 10° SSW 12:22:03 72° SE 12:26:38 10° NE daylight
25 Feb - 14:01:34 10° W 14:05:36 33° NNW 14:09:54 10° NE daylight
25 Feb - 15:46:27 10° NW 15:50:03 22° N 15:53:53 10° NE daylight
25 Feb - 17:30:17 10° NW 17:34:33 31° NNE 17:39:11 10° E visible
25 Feb - 19:13:21 10° NW 19:18:17 86° NE 19:23:45 10° SE visible
25 Feb - 20:57:03 10° WNW 21:01:03 24° WSW 21:05:19 10° SSW visible
26 Feb - 11:43:45 10° SSW 11:47:59 53° SE 11:52:25 10° NE daylight
26 Feb - 13:27:08 10° WSW 13:31:18 39° NNW 13:35:44 10° NE daylight
26 Feb - 15:12:01 10° WNW 15:15:38 22° N 15:19:28 10° NE daylight
26 Feb - 16:56:06 10° NW 17:00:11 28° NNE 17:04:37 10° E daylight
26 Feb - 18:39:14 10° NW 18:44:06 69° NE 18:49:31 10° SE visible
26 Feb - 20:22:38 10° WNW 20:27:04 31° WSW 20:31:52 10° S visible
